EW0259 Weather Reports


time (UTC)temp
F
wind
direction
speed
knots
gust
knots
rain 1hr
in
rain 24hr
in
rain mn
in
humidity
%
barometer
mb
20260504050303 65 83 0.0 0.0 0.00 0.00 0.00 61 1010.6
20260504045722 65 83 0.0 1.7 0.00 0.00 0.00 62 1010.7
20260504045230 66 83 0.0 1.7 0.00 0.00 0.00 60 1010.7
20260504044738 66 83 0.0 0.0 0.00 0.00 0.00 59 1010.6
20260504044226 67 83 0.0 0.9 0.00 0.00 0.00 59 1010.7
20260504043734 68 83 0.9 0.9 0.00 0.00 0.00 57 1010.7
20260504043222 68 309 0.0 0.0 0.00 0.00 0.00 55 1010.6
20260504042808 69 309 0.0 0.0 0.00 0.00 0.00 54 1010.6
20260504042224 69 309 0.0 1.7 0.00 0.00 0.00 54 1010.7
20260504041732 69 309 0.0 1.7 0.00 0.00 0.00 53 1010.7
20260504041259 69 259 0.0 1.7 0.00 0.00 0.00 53 1010.6
20260504040736 70 250 0.9 1.7 0.00 0.00 0.00 51 1010.5
20260504040224 70 291 0.9 2.6 0.00 0.00 0.00 51 1010.6
20260504035735 70 313 0.9 2.6 0.00 0.00 0.00 51 1010.6
20260504035223 70 292 0.9 1.7 0.00 0.00 0.00 50 1010.6
20260504034809 70 290 0.9 1.7 0.00 0.00 0.00 49 1010.6
20260504034226 71 270 0.9 1.7 0.00 0.00 0.00 49 1010.5
20260504033734 71 320 0.0 1.7 0.00 0.00 0.00 49 1010.4
20260504033301 71 306 0.0 1.7 0.00 0.00 0.00 48 1010.4
20260504032737 72 284 0.0 0.0 0.00 0.00 0.00 47 1010.4
20260504032304 72 298 0.0 1.7 0.00 0.00 0.00 47 1010.3
20260504031721 72 327 0.0 2.6 0.00 0.00 0.00 46 1010.5
20260504031229 73 330 0.9 3.5 0.00 0.00 0.00 46 1010.5
20260504030737 73 317 0.9 3.5 0.00 0.00 0.00 45 1010.4
20260504030224 73 312 0.9 4.3 0.00 0.00 0.00 44 1010.3
20260504025810 74 325 1.7 7.0 0.00 0.00 0.00 44 1010.3
20260504025227 74 327 3.5 7.0 0.00 0.00 0.00 43 1010.3
20260504024739 74 325 1.7 7.0 0.00 0.00 0.00 43 1010.2
20260504024227 75 297 1.7 7.0 0.00 0.00 0.00 42 1010.1
20260504023755 75 302 1.7 3.5 0.00 0.00 0.00 42 1010.2
20260504023723 75 302 1.7 3.5 0.00 0.00 0.00 42 1010.2
20260504023231 76 295 0.9 3.5 0.00 0.00 0.00 42 1010.3
20260504022758 76 340 0.9 3.5 0.00 0.00 0.00 42 1010.2
20260504022235 77 302 0.9 3.5 0.00 0.00 0.00 41 1010.2
20260504021723 77 300 1.7 7.0 0.00 0.00 0.00 40 1010.3
20260504021231 77 9 2.6 7.0 0.00 0.00 0.00 40 1010.4
20260504020739 77 317 2.6 8.7 0.00 0.00 0.00 40 1010.3
20260504020227 78 344 2.6 8.7 0.00 0.00 0.00 40 1010.3
20260504015734 79 304 3.5 8.7 0.00 0.00 0.00 39 1010.4
20260504015226 80 329 4.3 8.7 0.00 0.00 0.00 38 1010.5
20260504014754 81 343 0.9 5.2 0.00 0.00 0.00 39 1010.5
20260504014722 81 343 0.9 5.2 0.00 0.00 0.00 39 1010.5
20260504014306 81 336 0.9 6.1 0.00 0.00 0.00 39 1010.5
20260504013727 81 18 1.7 7.0 0.00 0.00 0.00 38 1010.5
20260504013234 81 325 2.6 7.0 0.00 0.00 0.00 38 1010.5
20260504012721 82 308 2.6 5.2 0.00 0.00 0.00 38 1010.6
20260504012229 82 5 0.9 6.1 0.00 0.00 0.00 38 1010.8
20260504011737 82 324 2.6 6.1 0.00 0.00 0.00 37 1010.8
20260504011305 82 329 0.9 5.2 0.00 0.00 0.00 38 1010.8
20260504010722 82 316 1.7 7.0 0.00 0.00 0.00 38 1010.8
20260504010230 82 339 1.7 7.0 0.00 0.00 0.00 38 1010.9
20260504005737 82 316 2.6 7.0 0.00 0.00 0.00 38 1010.9
20260504005225 82 326 2.6 5.2 0.00 0.00 0.00 38 1010.9
20260504004737 82 60 1.7 5.2 0.00 0.00 0.00 38 1010.9
20260504004304 82 277 0.9 7.8 0.00 0.00 0.00 38 1011.0
20260504003721 82 289 3.5 7.8 0.00 0.00 0.00 37 1011.1
20260504003229 82 290 0.9 5.2 0.00 0.00 0.00 38 1011.2
20260504002756 82 316 2.6 5.2 0.00 0.00 0.00 38 1011.2
20260504002724 82 316 2.6 5.2 0.00 0.00 0.00 38 1011.2
20260504002232 82 319 2.6 6.1 0.00 0.00 0.00 38 1011.2
20260504001740 82 301 1.7 6.1 0.00 0.00 0.00 40 1011.4
20260504001228 81 323 1.7 8.7 0.00 0.00 0.00 39 1011.4
20260504000756 81 263 2.6 8.7 0.00 0.00 0.00 39 1011.4
20260504000234 81 287 2.6 8.7 0.00 0.00 0.00 39 1011.5
20260503235740 81 311 1.7 9.6 0.00 0.00 0.00 38 1011.5
20260503235228 81 272 4.3 9.6 0.00 0.00 0.00 38 1011.7
20260503234736 81 323 2.6 7.8 0.00 0.00 0.00 39 1011.8
20260503234228 82 316 2.6 7.8 0.00 0.00 0.00 39 1011.8
20260503233756 82 348 3.5 7.8 0.00 0.00 0.00 38 1011.9
20260503233232 82 327 2.6 6.1 0.00 0.00 0.00 38 1011.9
20260503232739 82 294 2.6 8.7 0.00 0.00 0.00 39 1011.9
20260503232227 81 294 1.7 8.7 0.00 0.00 0.00 40 1011.9
20260503231735 81 326 3.5 8.7 0.00 0.00 0.00 39 1011.9
20260503231223 81 341 4.3 8.7 0.00 0.00 0.00 38 1011.9
20260503230731 81 305 2.6 7.8 0.00 0.00 0.00 39 1012.0
20260503230239 81 337 2.6 8.7 0.00 0.00 0.00 39 1012.1
20260503225726 81 338 4.3 9.6 0.00 0.00 0.00 38 1012.1
20260503225238 81 300 4.3 9.6 0.00 0.00 0.00 40 1012.2
20260503224726 81 42 2.6 7.8 0.00 0.00 0.00 39 1012.3
20260503224254 82 301 3.5 7.8 0.00 0.00 0.00 37 1012.4
20260503224222 82 301 3.5 7.8 0.00 0.00 0.00 37 1012.4
20260503223730 83 355 1.7 5.2 0.00 0.00 0.00 38 1012.5
20260503223238 83 287 0.9 5.2 0.00 0.00 0.00 40 1012.5
20260503222725 82 360 2.6 7.8 0.00 0.00 0.00 38 1012.6
20260503222253 82 342 4.3 7.8 0.00 0.00 0.00 38 1012.6
20260503221730 82 311 1.7 7.0 0.00 0.00 0.00 38 1012.6
20260503221238 82 22 2.6 7.0 0.00 0.00 0.00 38 1012.7
20260503220806 82 309 2.6 5.2 0.00 0.00 0.00 39 1012.7
20260503220303 81 331 2.6 5.2 0.00 0.00 0.00 40 1012.7
20260503220231 81 331 2.6 5.2 0.00 0.00 0.00 40 1012.7
20260503215737 82 333 2.6 5.2 0.00 0.00 0.00 39 1012.8
20260503215225 81 15 1.7 7.0 0.00 0.00 0.00 40 1012.8
20260503214753 81 308 1.7 3.5 0.00 0.00 0.00 40 1012.9
20260503214309 81 288 1.7 7.8 0.00 0.00 0.00 40 1012.9
20260503213726 80 323 2.6 7.8 0.00 0.00 0.00 41 1012.9
20260503213254 80 313 3.5 7.0 0.00 0.00 0.00 40 1013.1
20260503213222 80 313 3.5 7.0 0.00 0.00 0.00 40 1013.1
20260503212809 80 327 1.7 7.8 0.00 0.00 0.00 40 1013.0
20260503212305 80 232 2.6 8.7 0.00 0.00 0.00 40 1013.1
20260503212233 80 232 2.6 8.7 0.00 0.00 0.00 40 1013.1
20260503211725 80 329 2.6 7.8 0.00 0.00 0.00 40 1013.3
20260503211233 80 315 2.6 7.8 0.00 0.00 0.00 40 1013.4
20260503210721 80 300 1.7 3.5 0.00 0.00 0.00 40 1013.4
20260503210229 79 42 0.9 7.8 0.00 0.00 0.00 41 1013.4
20260503205736 79 32 2.6 7.8 0.00 0.00 0.00 42 1013.5
20260503205224 79 297 3.5 5.2 0.00 0.00 0.00 41 1013.5
20260503204812 79 20 1.7 5.2 0.00 0.00 0.00 41 1013.6
20260503204740 79 20 1.7 5.2 0.00 0.00 0.00 41 1013.6
20260503204307 79 9 1.7 4.3 0.00 0.00 0.00 42 1013.6
20260503203804 79 52 0.9 6.1 0.00 0.00 0.00 42 1013.6
20260503203732 79 52 0.9 6.1 0.00 0.00 0.00 42 1013.6
20260503203240 79 50 1.7 7.0 0.00 0.00 0.00 42 1013.6
20260503202807 78 43 1.7 7.0 0.00 0.00 0.00 42 1013.8
20260503202224 78 292 1.7 4.3 0.00 0.00 0.00 43 1013.8
20260503201732 78 355 2.6 8.7 0.00 0.00 0.00 43 1013.8
20260503201240 77 328 3.5 8.7 0.00 0.00 0.00 45 1013.8
20260503200732 77 312 1.7 8.7 0.00 0.00 0.00 45 1013.9
20260503200239 76 331 2.6 8.7 0.00 0.00 0.00 45 1014.0
20260503195726 76 38 3.5 8.7 0.00 0.00 0.00 46 1014.1
20260503195233 76 294 3.5 8.7 0.00 0.00 0.00 46 1014.2
20260503194721 76 321 2.6 7.8 0.00 0.00 0.00 46 1014.3
20260503194229 77 317 2.6 7.8 0.00 0.00 0.00 45 1014.4
20260503193737 77 69 2.6 6.1 0.00 0.00 0.00 46 1014.4
20260503193225 77 319 1.7 6.1 0.00 0.00 0.00 47 1014.5
20260503192732 76 313 1.7 4.3 0.00 0.00 0.00 48 1014.5
20260503192300 75 75 0.9 8.7 0.00 0.00 0.00 50 1014.5
20260503192228 75 75 0.9 8.7 0.00 0.00 0.00 50 1014.5
20260503191736 75 267 2.6 8.7 0.00 0.00 0.00 50 1014.7
20260503191228 75 346 1.7 7.8 0.00 0.00 0.00 49 1014.6
20260503190736 75 243 2.6 7.0 0.00 0.00 0.00 49 1014.7
20260503190224 75 346 2.6 7.0 0.00 0.00 0.00 49 1014.7
20260503185731 75 265 1.7 6.1 0.00 0.00 0.00 50 1014.7
20260503185239 74 325 0.9 6.1 0.00 0.00 0.00 52 1014.7
20260503184807 73 298 0.9 5.2 0.00 0.00 0.00 52 1014.8
20260503184224 73 320 3.5 5.2 0.00 0.00 0.00 51 1014.9
20260503183811 73 277 3.5 6.1 0.00 0.00 0.00 53 1015.0
20260503183228 74 318 1.7 4.3 0.00 0.00 0.00 52 1014.9
20260503182735 74 331 0.9 3.5 0.00 0.00 0.00 54 1014.9
20260503182223 73 355 0.9 3.5 0.00 0.00 0.00 53 1015.0
20260503181736 73 33 0.9 3.5 0.00 0.00 0.00 53 1015.1
20260503181223 72 24 0.9 7.0 0.00 0.00 0.00 55 1015.0
20260503180810 72 327 1.7 7.0 0.00 0.00 0.00 53 1015.0
20260503180227 71 338 1.7 3.5 0.00 0.00 0.00 55 1015.0
20260503175734 71 78 1.7 4.3 0.00 0.00 0.00 54 1014.9
20260503175222 70 341 1.7 5.2 0.00 0.00 0.00 54 1015.1
20260503174730 71 11 1.7 5.2 0.00 0.00 0.00 54 1015.0
20260503174238 71 333 1.7 5.2 0.00 0.00 0.00 53 1015.3
20260503173726 70 355 1.7 4.3 0.00 0.00 0.00 54 1015.1
20260503173234 70 304 1.7 4.3 0.00 0.00 0.00 53 1015.2
20260503172725 70 243 1.7 4.3 0.00 0.00 0.00 54 1015.3
20260503172233 70 317 1.7 3.5 0.00 0.00 0.00 55 1015.3
20260503171721 70 288 0.9 4.3 0.00 0.00 0.00 56 1015.2
20260503171309 69 360 0.9 3.5 0.00 0.00 0.00 55 1015.4
20260503170724 69 313 1.7 3.5 0.00 0.00 0.00 56 1015.3
20260503170232 69 51 0.9 3.5 0.00 0.00 0.00 58 1015.2
20260503150722 63 88 0.0 0.0 0.00 0.00 0.00 71 1015.3
20260503150234 62 88 0.0 0.0 0.00 0.00 0.00 75 1015.2
20260503140300 53 88 0.0 0.0 0.00 0.00 0.00 86 1015.0
20260503131240 49 88 0.0 1.7 0.00 0.00 0.00 90 1015.1
20260503130732 49 88 0.0 1.7 0.00 0.00 0.00 89 1015.1
20260503130240 49 88 0.0 0.9 0.00 0.00 0.00 90 1015.1
20260503110739 51 165 0.0 0.0 0.00 0.00 0.00 86 1015.2
20260503110227 51 164 0.0 0.0 0.00 0.00 0.00 86 1015.1
20260503090233 53 165 0.0 0.0 0.00 0.00 0.00 81 1015.6
20260503081303 55 165 0.0 0.0 0.00 0.00 0.00 77 1015.8
20260503080739 55 165 0.0 0.0 0.00 0.00 0.00 76 1015.8
20260503080227 55 164 0.0 0.0 0.00 0.00 0.00 76 1015.8
20260503072737 57 165 0.0 0.0 0.00 0.00 0.00 72 1015.6
20260503072229 57 165 0.0 0.0 0.00 0.00 0.00 71 1015.6
20260503071737 58 165 0.0 0.0 0.00 0.00 0.00 71 1015.5
20260503071225 58 165 0.0 0.0 0.00 0.00 0.00 70 1015.6
20260503070753 59 165 0.0 0.0 0.00 0.00 0.00 70 1015.5
20260503070229 59 165 0.0 0.0 0.00 0.00 0.00 70 1015.5
20260503060231 62 276 0.0 0.0 0.00 0.00 0.00 59 1015.4